N205WH EDXW-EHAM

Flight info

Callsign N205WH
Flight time 1h 28m
Altitude 12000
Route OLDIP DCT ROCZO DCT LAZOQ P174 KUBAT T200 BLUFA
Aircraft S22T/L-SBGRY/L

Departure

Time 2026-04-27 19:23
Airport Westerland Sylt Airport (EDXW)

Arrival

Time 2026-04-27 20:51
Airport Amsterdam Airport Schiphol (EHAM)
Time Latitude Longitude Altitude Speed Heading
2026-04-27 19:06 54.91403 8.32397 22 ft 0 kts 127°
2026-04-27 19:11 54.91394 8.32421 22 ft 7 kts 123°
2026-04-27 19:11 54.91335 8.32501 22 ft 13 kts 150°
2026-04-27 19:11 54.91256 8.32570 22 ft 14 kts 155°
2026-04-27 19:11 54.91177 8.32668 23 ft 13 kts 123°
2026-04-27 19:12 54.91110 8.32811 23 ft 15 kts 132°
2026-04-27 19:12 54.91044 8.32940 27 ft 15 kts 131°
2026-04-27 19:12 54.90970 8.33077 29 ft 15 kts 139°
2026-04-27 19:12 54.90881 8.33171 30 ft 15 kts 156°
2026-04-27 19:13 54.90779 8.33218 30 ft 15 kts 172°
2026-04-27 19:13 54.90677 8.33231 30 ft 13 kts 176°
2026-04-27 19:13 54.90588 8.33242 30 ft 13 kts 175°
2026-04-27 19:13 54.90489 8.33275 29 ft 16 kts 160°
2026-04-27 19:14 54.90394 8.33364 29 ft 14 kts 141°
2026-04-27 19:14 54.90318 8.33498 28 ft 14 kts 126°
2026-04-27 19:14 54.90272 8.33657 28 ft 13 kts 109°
2026-04-27 19:14 54.90254 8.33809 28 ft 13 kts 97°
2026-04-27 19:15 54.90239 8.33989 28 ft 14 kts 98°
2026-04-27 19:15 54.90238 8.34154 28 ft 14 kts 84°
2026-04-27 19:15 54.90252 8.34296 29 ft 12 kts 79°
2026-04-27 19:15 54.90268 8.34454 30 ft 14 kts 80°
2026-04-27 19:16 54.90284 8.34615 30 ft 14 kts 80°
2026-04-27 19:16 54.90295 8.34718 30 ft 12 kts 79°
2026-04-27 19:16 54.90315 8.34909 31 ft 13 kts 79°
2026-04-27 19:16 54.90327 8.35032 30 ft 7 kts 77°
2026-04-27 19:17 54.90336 8.35068 30 ft 0 kts 55°
2026-04-27 19:21 54.90337 8.35069 30 ft 1 kts 54°
2026-04-27 19:21 54.90360 8.35125 31 ft 8 kts 55°
2026-04-27 19:21 54.90414 8.35170 32 ft 12 kts 340°
2026-04-27 19:22 54.90602 8.34941 31 ft 64 kts 324°
2026-04-27 19:22 54.91055 8.34340 150 ft 89 kts 325°
2026-04-27 19:22 54.91591 8.33699 330 ft 101 kts 328°
2026-04-27 19:22 54.92185 8.32925 588 ft 111 kts 327°
2026-04-27 19:23 54.92835 8.32128 849 ft 117 kts 328°
2026-04-27 19:23 54.93282 8.31578 1038 ft 120 kts 328°
2026-04-27 19:23 54.93980 8.30723 1306 ft 125 kts 328°
2026-04-27 19:23 54.94702 8.29831 1576 ft 129 kts 329°
2026-04-27 19:24 54.95446 8.28911 1848 ft 133 kts 328°
2026-04-27 19:24 54.96211 8.27962 2114 ft 137 kts 328°
2026-04-27 19:24 54.96996 8.26987 2391 ft 140 kts 328°
2026-04-27 19:24 54.97791 8.25992 2639 ft 142 kts 326°
2026-04-27 19:25 54.98365 8.24568 2909 ft 148 kts 291°
2026-04-27 19:25 54.98459 8.22775 3176 ft 151 kts 259°
2026-04-27 19:25 54.98026 8.21124 3448 ft 151 kts 231°
2026-04-27 19:25 54.97411 8.19663 3710 ft 152 kts 233°
2026-04-27 19:26 54.96797 8.18149 3968 ft 154 kts 233°
2026-04-27 19:26 54.96172 8.16627 4231 ft 154 kts 233°
2026-04-27 19:26 54.95540 8.15101 4493 ft 155 kts 234°
2026-04-27 19:26 54.94901 8.13590 4756 ft 155 kts 229°
2026-04-27 19:27 54.94005 8.12593 5031 ft 155 kts 197°
2026-04-27 19:27 54.92959 8.12446 5284 ft 154 kts 169°
2026-04-27 19:27 54.91982 8.13176 5545 ft 153 kts 140°
2026-04-27 19:27 54.91165 8.14361 5809 ft 154 kts 138°
2026-04-27 19:28 54.90323 8.15526 6064 ft 155 kts 142°
2026-04-27 19:28 54.89282 8.15966 6302 ft 159 kts 186°
2026-04-27 19:28 54.88205 8.15546 6561 ft 159 kts 205°
2026-04-27 19:28 54.87232 8.14627 6819 ft 159 kts 211°
2026-04-27 19:29 54.86244 8.13745 7070 ft 160 kts 206°
2026-04-27 19:29 54.85229 8.12932 7309 ft 161 kts 205°
2026-04-27 19:29 54.84186 8.12104 7327 ft 170 kts 205°
2026-04-27 19:29 54.83079 8.11247 7335 ft 177 kts 204°
2026-04-27 19:30 54.81982 8.10394 7492 ft 173 kts 205°
2026-04-27 19:30 54.80883 8.09540 7645 ft 174 kts 205°
2026-04-27 19:30 54.79777 8.08676 7830 ft 173 kts 205°
2026-04-27 19:30 54.78678 8.07821 8024 ft 173 kts 204°
2026-04-27 19:31 54.77596 8.06982 8249 ft 171 kts 205°
2026-04-27 19:31 54.76515 8.06145 8503 ft 168 kts 205°
2026-04-27 19:31 54.75453 8.05321 8757 ft 167 kts 204°
2026-04-27 19:31 54.74397 8.04504 9012 ft 166 kts 204°
2026-04-27 19:32 54.73343 8.03687 9274 ft 165 kts 204°
2026-04-27 19:32 54.72294 8.02873 9538 ft 165 kts 204°
2026-04-27 19:32 54.71242 8.02060 9801 ft 165 kts 204°
2026-04-27 19:32 54.70207 8.01260 10063 ft 165 kts 204°
2026-04-27 19:33 54.69156 8.00446 10328 ft 165 kts 204°
2026-04-27 19:33 54.68460 7.99909 10488 ft 165 kts 204°
2026-04-27 19:33 54.67046 7.98834 10815 ft 166 kts 204°
2026-04-27 19:33 54.65994 7.98019 11061 ft 166 kts 204°
2026-04-27 19:34 54.64953 7.97212 11307 ft 166 kts 204°
2026-04-27 19:34 54.63894 7.96393 11565 ft 166 kts 204°
2026-04-27 19:34 54.62834 7.95576 11812 ft 167 kts 204°
2026-04-27 19:34 54.61770 7.94755 12064 ft 167 kts 204°
2026-04-27 19:35 54.60703 7.93933 12319 ft 168 kts 204°
2026-04-27 19:35 54.59615 7.93086 12344 ft 178 kts 204°
2026-04-27 19:35 54.58466 7.92199 12346 ft 184 kts 204°
2026-04-27 19:35 54.57278 7.91290 12351 ft 188 kts 204°
2026-04-27 19:36 54.56066 7.90358 12354 ft 191 kts 204°
2026-04-27 19:36 54.54862 7.89435 12349 ft 193 kts 204°
2026-04-27 19:36 54.53629 7.88490 12346 ft 194 kts 204°
2026-04-27 19:36 54.52396 7.87540 12353 ft 195 kts 204°
2026-04-27 19:37 54.51157 7.86586 12351 ft 195 kts 204°
2026-04-27 19:37 54.49913 7.85638 12341 ft 195 kts 204°
2026-04-27 19:37 54.48672 7.84691 12349 ft 195 kts 204°
2026-04-27 19:37 54.47428 7.83744 12344 ft 195 kts 204°
2026-04-27 19:38 54.46185 7.82795 12342 ft 195 kts 204°
2026-04-27 19:38 54.44959 7.81860 12349 ft 195 kts 204°
2026-04-27 19:38 54.43716 7.80913 12342 ft 195 kts 204°
2026-04-27 19:38 54.42471 7.79970 12345 ft 195 kts 204°
2026-04-27 19:39 54.41226 7.79022 12347 ft 195 kts 204°
2026-04-27 19:39 54.39983 7.78075 12343 ft 195 kts 204°
2026-04-27 19:39 54.38738 7.77131 12340 ft 195 kts 203°
2026-04-27 19:39 54.37493 7.76186 12345 ft 195 kts 204°
2026-04-27 19:40 54.36252 7.75240 12343 ft 195 kts 204°
2026-04-27 19:40 54.35007 7.74294 12345 ft 196 kts 203°
2026-04-27 19:40 54.33761 7.73347 12342 ft 196 kts 204°
2026-04-27 19:40 54.32516 7.72401 12340 ft 196 kts 203°
2026-04-27 19:41 54.31272 7.71458 12342 ft 196 kts 203°
2026-04-27 19:41 54.30023 7.70513 12339 ft 196 kts 203°
2026-04-27 19:41 54.28776 7.69570 12345 ft 196 kts 203°
2026-04-27 19:41 54.27530 7.68627 12343 ft 196 kts 203°
2026-04-27 19:42 54.26300 7.67697 12337 ft 196 kts 203°
2026-04-27 19:42 54.25050 7.66754 12341 ft 196 kts 203°
2026-04-27 19:42 54.23804 7.65813 12343 ft 195 kts 203°
2026-04-27 19:42 54.22558 7.64873 12340 ft 196 kts 203°
2026-04-27 19:43 54.21315 7.63929 12342 ft 196 kts 203°
2026-04-27 19:43 54.20068 7.62988 12340 ft 195 kts 203°
2026-04-27 19:43 54.18839 7.62066 12334 ft 195 kts 203°
2026-04-27 19:43 54.17595 7.61132 12343 ft 195 kts 203°
2026-04-27 19:44 54.16351 7.60198 12343 ft 195 kts 203°
2026-04-27 19:44 54.15105 7.59264 12338 ft 195 kts 203°
2026-04-27 19:44 54.13862 7.58330 12339 ft 195 kts 203°
2026-04-27 19:44 54.12619 7.57400 12341 ft 195 kts 203°
2026-04-27 19:45 54.11375 7.56467 12338 ft 195 kts 203°
2026-04-27 19:45 54.10133 7.55537 12331 ft 195 kts 202°
2026-04-27 19:45 54.08893 7.54609 12340 ft 195 kts 203°
2026-04-27 19:45 54.07652 7.53679 12333 ft 195 kts 202°
2026-04-27 19:46 54.06410 7.52751 12333 ft 195 kts 202°
2026-04-27 19:46 54.05166 7.51820 12332 ft 195 kts 202°
2026-04-27 19:46 54.03925 7.50893 12336 ft 195 kts 203°
2026-04-27 19:46 54.02684 7.49968 12333 ft 195 kts 202°
2026-04-27 19:47 54.01444 7.49044 12330 ft 195 kts 202°
2026-04-27 19:47 54.00202 7.48117 12335 ft 194 kts 202°
2026-04-27 19:47 53.98968 7.47194 12186 ft 192 kts 204°
2026-04-27 19:47 53.97770 7.46260 11679 ft 190 kts 204°
2026-04-27 19:48 53.96560 7.45355 11175 ft 189 kts 202°
2026-04-27 19:48 53.95357 7.44472 10685 ft 188 kts 202°
2026-04-27 19:48 53.94161 7.43585 10198 ft 186 kts 202°
2026-04-27 19:48 53.92974 7.42711 9662 ft 185 kts 202°
2026-04-27 19:49 53.91792 7.41842 9144 ft 184 kts 202°
2026-04-27 19:49 53.90641 7.41006 8820 ft 175 kts 202°
2026-04-27 19:49 53.89545 7.40198 8462 ft 171 kts 202°
2026-04-27 19:49 53.88449 7.39383 8080 ft 172 kts 202°
2026-04-27 19:50 53.87354 7.38574 7763 ft 174 kts 202°
2026-04-27 19:50 53.86225 7.37759 7536 ft 183 kts 202°
2026-04-27 19:50 53.85036 7.36880 7338 ft 187 kts 202°
2026-04-27 19:50 53.83871 7.36011 7330 ft 180 kts 202°
2026-04-27 19:51 53.82724 7.35164 7326 ft 180 kts 202°
2026-04-27 19:51 53.81571 7.34316 7326 ft 182 kts 202°
2026-04-27 19:51 53.80406 7.33454 7330 ft 183 kts 202°
2026-04-27 19:51 53.79240 7.32588 7325 ft 183 kts 202°
2026-04-27 19:52 53.78086 7.31735 7326 ft 184 kts 202°
2026-04-27 19:52 53.77295 7.31152 7326 ft 184 kts 202°
2026-04-27 19:52 53.75742 7.30009 7324 ft 183 kts 202°
2026-04-27 19:52 53.74574 7.29150 7322 ft 183 kts 202°
2026-04-27 19:53 53.72234 7.27430 7317 ft 183 kts 202°
2026-04-27 19:53 53.71064 7.26572 7320 ft 183 kts 202°
2026-04-27 19:53 53.69894 7.25714 7321 ft 183 kts 202°
2026-04-27 19:54 53.68728 7.24858 7320 ft 183 kts 202°
2026-04-27 19:54 53.67557 7.24001 7320 ft 183 kts 202°
2026-04-27 19:54 53.66390 7.23146 7323 ft 183 kts 202°
2026-04-27 19:54 53.65227 7.22294 7324 ft 183 kts 202°
2026-04-27 19:55 53.64060 7.21441 7324 ft 183 kts 202°
2026-04-27 19:55 53.62892 7.20588 7325 ft 183 kts 202°
2026-04-27 19:55 53.61740 7.19746 7327 ft 183 kts 202°
2026-04-27 19:55 53.60573 7.18895 7324 ft 182 kts 202°
2026-04-27 19:56 53.59404 7.18043 7326 ft 183 kts 202°
2026-04-27 19:56 53.58240 7.17193 7323 ft 183 kts 202°
2026-04-27 19:56 53.57073 7.16343 7329 ft 182 kts 202°
2026-04-27 19:56 53.55910 7.15495 7326 ft 182 kts 202°
2026-04-27 19:57 53.54745 7.14648 7323 ft 182 kts 202°
2026-04-27 19:57 53.53581 7.13801 7323 ft 182 kts 202°
2026-04-27 19:57 53.52417 7.12956 7324 ft 182 kts 202°
2026-04-27 19:57 53.51251 7.12109 7324 ft 182 kts 202°
2026-04-27 19:58 53.50084 7.11261 7326 ft 182 kts 202°
2026-04-27 19:58 53.48934 7.10427 7327 ft 182 kts 202°
2026-04-27 19:58 53.47769 7.09581 7324 ft 182 kts 202°
2026-04-27 19:58 53.46590 7.08726 7324 ft 182 kts 202°
2026-04-27 19:59 53.45440 7.07894 7328 ft 182 kts 202°
2026-04-27 19:59 53.44276 7.07053 7327 ft 182 kts 202°
2026-04-27 19:59 53.43114 7.06211 7327 ft 182 kts 203°
2026-04-27 19:59 53.41952 7.05371 7325 ft 182 kts 203°
2026-04-27 20:00 53.40789 7.04531 7326 ft 182 kts 203°
2026-04-27 20:00 53.39627 7.03690 7327 ft 182 kts 203°
2026-04-27 20:00 53.38467 7.02854 7323 ft 182 kts 203°
2026-04-27 20:00 53.37308 7.02019 7325 ft 181 kts 203°
2026-04-27 20:01 53.36147 7.01181 7324 ft 181 kts 203°
2026-04-27 20:01 53.34988 7.00348 7321 ft 181 kts 203°
2026-04-27 20:01 53.33831 6.99506 7318 ft 181 kts 205°
2026-04-27 20:01 53.32811 6.98278 7312 ft 181 kts 220°
2026-04-27 20:02 53.31834 6.96941 7310 ft 181 kts 218°
2026-04-27 20:02 53.30848 6.95635 7313 ft 181 kts 218°
2026-04-27 20:02 53.29865 6.94326 7308 ft 181 kts 218°
2026-04-27 20:02 53.28884 6.93016 7301 ft 180 kts 219°
2026-04-27 20:03 53.27903 6.91706 7301 ft 180 kts 218°
2026-04-27 20:03 53.26924 6.90397 7299 ft 180 kts 219°
2026-04-27 20:03 53.25945 6.89091 7285 ft 180 kts 219°
2026-04-27 20:03 53.24966 6.87785 7289 ft 180 kts 218°
2026-04-27 20:04 53.23990 6.86485 7290 ft 180 kts 218°
2026-04-27 20:04 53.23013 6.85184 7290 ft 179 kts 218°
2026-04-27 20:04 53.22039 6.83887 7286 ft 179 kts 218°
2026-04-27 20:04 53.21392 6.83028 7289 ft 179 kts 218°
2026-04-27 20:05 53.20101 6.81311 7290 ft 179 kts 218°
2026-04-27 20:05 53.19126 6.80016 7291 ft 179 kts 218°
2026-04-27 20:05 53.18151 6.78721 7287 ft 179 kts 218°
2026-04-27 20:05 53.17175 6.77426 7293 ft 179 kts 218°
2026-04-27 20:06 53.16198 6.76131 7291 ft 179 kts 218°
2026-04-27 20:06 53.15224 6.74838 7292 ft 179 kts 218°
2026-04-27 20:06 53.14250 6.73549 7291 ft 179 kts 218°
2026-04-27 20:06 53.13276 6.72259 7293 ft 179 kts 218°
2026-04-27 20:07 53.12298 6.70967 7293 ft 179 kts 218°
2026-04-27 20:07 53.11328 6.69683 7289 ft 179 kts 218°
2026-04-27 20:07 53.10353 6.68397 7291 ft 179 kts 217°
2026-04-27 20:07 53.09378 6.67107 7291 ft 179 kts 217°
2026-04-27 20:08 53.08732 6.66255 7292 ft 179 kts 217°
2026-04-27 20:08 53.07760 6.64972 7292 ft 178 kts 217°
2026-04-27 20:08 53.06786 6.63688 7292 ft 178 kts 217°
2026-04-27 20:08 53.05498 6.61990 7291 ft 178 kts 217°
2026-04-27 20:09 53.04850 6.61137 7290 ft 178 kts 217°
2026-04-27 20:09 53.03876 6.59856 7291 ft 178 kts 217°
2026-04-27 20:09 53.02902 6.58574 7288 ft 178 kts 217°
2026-04-27 20:09 53.01930 6.57296 7290 ft 178 kts 217°
2026-04-27 20:10 53.00957 6.56018 7286 ft 178 kts 217°
2026-04-27 20:10 52.99993 6.54746 7285 ft 174 kts 218°
2026-04-27 20:10 52.99060 6.53512 7283 ft 169 kts 217°
2026-04-27 20:10 52.98149 6.52321 7281 ft 165 kts 217°
2026-04-27 20:11 52.97253 6.51150 7281 ft 163 kts 217°
2026-04-27 20:11 52.96366 6.49989 7281 ft 162 kts 217°
2026-04-27 20:11 52.95485 6.48836 7276 ft 161 kts 217°
2026-04-27 20:11 52.94608 6.47689 7275 ft 160 kts 217°
2026-04-27 20:12 52.93732 6.46545 7279 ft 160 kts 217°
2026-04-27 20:12 52.92861 6.45405 7276 ft 159 kts 217°
2026-04-27 20:12 52.92002 6.44283 7274 ft 159 kts 217°
2026-04-27 20:12 52.91132 6.43147 7274 ft 159 kts 217°
2026-04-27 20:13 52.90263 6.42013 7272 ft 159 kts 217°
2026-04-27 20:13 52.89381 6.40863 7271 ft 159 kts 217°
2026-04-27 20:13 52.88527 6.39748 7270 ft 159 kts 217°
2026-04-27 20:13 52.87657 6.38613 7270 ft 159 kts 217°
2026-04-27 20:14 52.86788 6.37483 7269 ft 159 kts 217°
2026-04-27 20:14 52.85921 6.36352 7268 ft 159 kts 217°
2026-04-27 20:14 52.85054 6.35227 7266 ft 158 kts 217°
2026-04-27 20:14 52.84187 6.34094 7268 ft 158 kts 217°
2026-04-27 20:15 52.83386 6.32851 7263 ft 159 kts 233°
2026-04-27 20:15 52.82775 6.31325 7265 ft 159 kts 234°
2026-04-27 20:15 52.82141 6.29826 7264 ft 159 kts 234°
2026-04-27 20:15 52.81510 6.28331 7263 ft 159 kts 234°
2026-04-27 20:16 52.80879 6.26833 7266 ft 159 kts 234°
2026-04-27 20:16 52.80259 6.25356 7260 ft 159 kts 234°
2026-04-27 20:16 52.79627 6.23855 7260 ft 159 kts 234°
2026-04-27 20:16 52.78996 6.22355 7262 ft 159 kts 234°
2026-04-27 20:17 52.78364 6.20855 7261 ft 159 kts 234°
2026-04-27 20:17 52.77729 6.19358 7261 ft 159 kts 234°
2026-04-27 20:17 52.77096 6.17861 7260 ft 159 kts 234°
2026-04-27 20:17 52.76463 6.16362 7255 ft 159 kts 234°
2026-04-27 20:18 52.75830 6.14862 7259 ft 159 kts 234°
2026-04-27 20:18 52.75206 6.13379 7261 ft 159 kts 234°
2026-04-27 20:18 52.74572 6.11881 7256 ft 159 kts 234°
2026-04-27 20:18 52.73939 6.10380 7258 ft 159 kts 234°
2026-04-27 20:19 52.73306 6.08882 7254 ft 159 kts 234°
2026-04-27 20:19 52.72675 6.07389 7256 ft 159 kts 234°
2026-04-27 20:19 52.72042 6.05893 7256 ft 159 kts 234°
2026-04-27 20:19 52.71408 6.04398 7256 ft 159 kts 234°
2026-04-27 20:20 52.70776 6.02903 7256 ft 159 kts 234°
2026-04-27 20:20 52.70150 6.01425 7255 ft 159 kts 234°
2026-04-27 20:20 52.69516 5.99934 7255 ft 159 kts 234°
2026-04-27 20:20 52.68882 5.98438 7250 ft 159 kts 234°
2026-04-27 20:21 52.68248 5.96945 7252 ft 159 kts 234°
2026-04-27 20:21 52.67612 5.95451 7253 ft 159 kts 234°
2026-04-27 20:21 52.66976 5.93966 7251 ft 159 kts 234°
2026-04-27 20:21 52.66343 5.92473 7249 ft 159 kts 234°
2026-04-27 20:22 52.65710 5.90983 7251 ft 158 kts 234°
2026-04-27 20:22 52.65080 5.89500 7251 ft 158 kts 234°
2026-04-27 20:22 52.64448 5.88015 7247 ft 158 kts 234°
2026-04-27 20:22 52.63817 5.86532 7250 ft 158 kts 234°
2026-04-27 20:23 52.63186 5.85052 7251 ft 158 kts 234°
2026-04-27 20:23 52.62566 5.83597 7250 ft 158 kts 234°
2026-04-27 20:23 52.61934 5.82119 7250 ft 158 kts 234°
2026-04-27 20:23 52.61303 5.80642 7252 ft 157 kts 234°
2026-04-27 20:24 52.60670 5.79172 7250 ft 157 kts 234°
2026-04-27 20:24 52.60041 5.77698 7252 ft 157 kts 234°
2026-04-27 20:24 52.59411 5.76226 7251 ft 157 kts 235°
2026-04-27 20:24 52.58774 5.74733 7143 ft 164 kts 234°
2026-04-27 20:25 52.58109 5.73172 6962 ft 165 kts 236°
2026-04-27 20:25 52.57469 5.71648 6767 ft 159 kts 235°
2026-04-27 20:25 52.56845 5.70182 6556 ft 155 kts 235°
2026-04-27 20:25 52.56234 5.68765 6341 ft 153 kts 235°
2026-04-27 20:26 52.55618 5.67345 6124 ft 153 kts 235°
2026-04-27 20:26 52.54998 5.65911 5922 ft 155 kts 236°
2026-04-27 20:26 52.54371 5.64461 5719 ft 156 kts 236°
2026-04-27 20:26 52.53745 5.62998 5519 ft 157 kts 236°
2026-04-27 20:27 52.53114 5.61536 5319 ft 157 kts 236°
2026-04-27 20:27 52.52481 5.60066 5115 ft 157 kts 236°
2026-04-27 20:27 52.51841 5.58592 4911 ft 159 kts 236°
2026-04-27 20:27 52.51210 5.57129 4711 ft 159 kts 236°
2026-04-27 20:28 52.50454 5.55772 4502 ft 163 kts 226°
2026-04-27 20:28 52.49651 5.54436 4307 ft 165 kts 227°
2026-04-27 20:28 52.48853 5.53098 4271 ft 162 kts 227°
2026-04-27 20:28 52.48336 5.52228 4276 ft 159 kts 227°
2026-04-27 20:29 52.47313 5.50494 4266 ft 156 kts 227°
2026-04-27 20:29 52.46565 5.49232 4262 ft 155 kts 227°
2026-04-27 20:29 52.45815 5.47969 4260 ft 154 kts 227°
2026-04-27 20:29 52.45071 5.46709 4259 ft 153 kts 227°
2026-04-27 20:30 52.44328 5.45456 4257 ft 153 kts 227°
2026-04-27 20:30 52.43583 5.44204 4257 ft 153 kts 227°
2026-04-27 20:30 52.42841 5.42959 4256 ft 153 kts 227°
2026-04-27 20:30 52.42100 5.41712 4258 ft 152 kts 227°
2026-04-27 20:31 52.41360 5.40467 4258 ft 152 kts 228°
2026-04-27 20:31 52.40619 5.39223 4263 ft 153 kts 227°
2026-04-27 20:31 52.39884 5.37990 4259 ft 153 kts 227°
2026-04-27 20:31 52.39143 5.36742 4260 ft 153 kts 227°
2026-04-27 20:32 52.38399 5.35488 4256 ft 154 kts 227°
2026-04-27 20:32 52.37651 5.34230 4258 ft 155 kts 227°
2026-04-27 20:32 52.36896 5.32973 4262 ft 157 kts 226°
2026-04-27 20:32 52.36121 5.31684 4263 ft 159 kts 227°
2026-04-27 20:33 52.35341 5.30378 4266 ft 161 kts 227°
2026-04-27 20:33 52.34563 5.29069 4266 ft 161 kts 227°
2026-04-27 20:33 52.33777 5.27751 4269 ft 161 kts 227°
2026-04-27 20:33 52.32989 5.26436 4265 ft 162 kts 227°
2026-04-27 20:34 52.32201 5.25117 4262 ft 162 kts 227°
2026-04-27 20:34 52.31410 5.23794 4262 ft 162 kts 227°
2026-04-27 20:34 52.30635 5.22497 4259 ft 161 kts 227°
2026-04-27 20:34 52.29851 5.21183 4258 ft 161 kts 227°
2026-04-27 20:35 52.29058 5.19874 4257 ft 162 kts 227°
2026-04-27 20:35 52.28267 5.18553 4244 ft 163 kts 227°
2026-04-27 20:35 52.27472 5.17228 4245 ft 164 kts 226°
2026-04-27 20:35 52.26670 5.15896 4250 ft 164 kts 227°
2026-04-27 20:36 52.25872 5.14560 4247 ft 164 kts 227°
2026-04-27 20:36 52.25070 5.13229 4242 ft 164 kts 227°
2026-04-27 20:36 52.24269 5.11903 4244 ft 164 kts 227°
2026-04-27 20:36 52.23468 5.10571 4244 ft 164 kts 227°
2026-04-27 20:37 52.22675 5.09256 4239 ft 160 kts 227°
2026-04-27 20:37 52.21899 5.07976 4237 ft 157 kts 227°
2026-04-27 20:37 52.21144 5.06728 4231 ft 155 kts 227°
2026-04-27 20:37 52.20394 5.05471 4230 ft 154 kts 227°
2026-04-27 20:38 52.19641 5.04227 4234 ft 153 kts 227°
2026-04-27 20:38 52.18894 5.03001 4225 ft 151 kts 227°
2026-04-27 20:38 52.18151 5.01766 4084 ft 152 kts 228°
2026-04-27 20:38 52.17420 5.00543 3928 ft 148 kts 227°
2026-04-27 20:39 52.16705 4.99359 3769 ft 146 kts 227°
2026-04-27 20:39 52.15995 4.98187 3609 ft 145 kts 226°
2026-04-27 20:39 52.15275 4.97007 3453 ft 149 kts 226°
2026-04-27 20:39 52.14550 4.95809 3308 ft 150 kts 226°
2026-04-27 20:40 52.13835 4.94623 3113 ft 144 kts 226°
2026-04-27 20:40 52.13153 4.93463 2934 ft 136 kts 234°
2026-04-27 20:40 52.12948 4.92082 2835 ft 121 kts 275°
2026-04-27 20:40 52.12935 4.90754 2750 ft 111 kts 271°
2026-04-27 20:41 52.12914 4.89498 2641 ft 111 kts 272°
2026-04-27 20:41 52.12903 4.88244 2523 ft 110 kts 271°
2026-04-27 20:41 52.12897 4.87013 2403 ft 107 kts 272°
2026-04-27 20:41 52.12891 4.85786 2294 ft 110 kts 272°
2026-04-27 20:42 52.12886 4.84539 2247 ft 111 kts 271°
2026-04-27 20:42 52.12879 4.83273 2245 ft 112 kts 271°
2026-04-27 20:42 52.12883 4.82001 2183 ft 116 kts 272°
2026-04-27 20:42 52.12898 4.80664 2028 ft 121 kts 273°
2026-04-27 20:43 52.12901 4.79349 1999 ft 111 kts 272°
2026-04-27 20:43 52.12931 4.78147 1978 ft 101 kts 294°
2026-04-27 20:43 52.13396 4.77461 1990 ft 90 kts 333°
2026-04-27 20:43 52.13941 4.76902 1991 ft 93 kts 354°
2026-04-27 20:44 52.14577 4.76628 2008 ft 96 kts 358°
2026-04-27 20:44 52.15237 4.76612 2011 ft 97 kts
2026-04-27 20:44 52.15907 4.76613 2018 ft 98 kts
2026-04-27 20:44 52.16606 4.76640 2010 ft 99 kts
2026-04-27 20:45 52.17276 4.76675 2009 ft 96 kts
2026-04-27 20:45 52.17937 4.76720 2006 ft 94 kts
2026-04-27 20:45 52.18589 4.76781 2002 ft 93 kts 11°
2026-04-27 20:45 52.19243 4.76839 1975 ft 96 kts 10°
2026-04-27 20:46 52.19910 4.76904 1846 ft 94 kts
2026-04-27 20:46 52.20548 4.76965 1706 ft 90 kts
2026-04-27 20:46 52.21167 4.77019 1573 ft 90 kts 10°
2026-04-27 20:46 52.21794 4.77076 1473 ft 90 kts 10°
2026-04-27 20:47 52.22423 4.77140 1373 ft 91 kts 10°
2026-04-27 20:47 52.23057 4.77189 1266 ft 91 kts 10°
2026-04-27 20:47 52.23689 4.77250 1132 ft 90 kts
2026-04-27 20:47 52.24315 4.77303 1002 ft 90 kts
2026-04-27 20:48 52.24923 4.77356 886 ft 84 kts
2026-04-27 20:48 52.25312 4.77390 800 ft 85 kts
2026-04-27 20:48 52.26085 4.77463 695 ft 78 kts
2026-04-27 20:48 52.26657 4.77447 654 ft 84 kts
2026-04-27 20:49 52.27241 4.77497 531 ft 83 kts
2026-04-27 20:49 52.27798 4.77555 436 ft 80 kts
2026-04-27 20:49 52.28350 4.77575 325 ft 78 kts
2026-04-27 20:49 52.28885 4.77649 221 ft 76 kts 11°
2026-04-27 20:50 52.29420 4.77743 146 ft 78 kts 14°
2026-04-27 20:50 52.29892 4.78147 67 ft 78 kts 38°
2026-04-27 20:50 52.30297 4.78718 -3 ft 73 kts 39°
2026-04-27 20:50 52.30535 4.79050 -13 ft 60 kts 44°
2026-04-27 20:51 52.30796 4.79431 -11 ft 38 kts 41°
2026-04-27 20:51 52.30894 4.79631 -14 ft 11 kts 126°
2026-04-27 20:51 52.30865 4.79688 -13 ft 9 kts 132°
2026-04-27 20:51 52.30831 4.79756 -12 ft 9 kts 121°
2026-04-27 20:52 52.30851 4.79860 -12 ft 11 kts 42°
2026-04-27 20:52 52.30911 4.79947 -12 ft 10 kts 41°
2026-04-27 20:52 52.30965 4.80021 -12 ft 10 kts 41°
2026-04-27 20:52 52.31015 4.80095 -12 ft 7 kts 41°
2026-04-27 20:53 52.31056 4.80152 -12 ft 6 kts 40°
2026-04-27 20:53 52.31055 4.80238 -12 ft 12 kts 124°
2026-04-27 20:53 52.31048 4.80311 -12 ft 8 kts 46°
2026-04-27 20:53 52.31085 4.80366 -12 ft 7 kts 41°
2026-04-27 20:54 52.31130 4.80429 -12 ft 0 kts 21°
2026-04-27 20:54 52.31144 4.80412 -12 ft 6 kts 303°
2026-04-27 20:54 52.31159 4.80384 -12 ft 0 kts 311°